Weather History for KGSO - June, 2013

Change the Weather History Date:

Thursday, June 27, 2013

  Actual Average Record
Temperature  
Mean Temperature 77 °F 78 °F  
Max Temperature 86 °F 87 °F 102 °F (1954)
Min Temperature 68 °F 68 °F 54 °F (1960)
Degree Days  
Heating Degree Days 0 0  
Month to date heating degree days 0 5  
Since 1 June heating degree days 0 5  
Since 1 July heating degree days 3637 3617  
Cooling Degree Days 12 13  
Month to date cooling degree days 260 268  
Year to date cooling degree days 410 427  
Since 1 June cooling degree days 260 268  
Growing Degree Days 27 (Base 50)    
Moisture  
Dew Point 69 °F    
Average Humidity 79    
Maximum Humidity 97    
Minimum Humidity 61    
Precipitation  
Precipitation T in 0.11 in 2.36 in (2006)
Month to date precipitation 7.02 3.37  
Year to date precipitation 25.37 20.07  
Sea Level Pressure  
Sea Level Pressure 29.81 in    
Wind  
Wind Speed 9 mph (SW)    
Max Wind Speed 17 mph    
Max Gust Speed 23 mph    
Visibility 9 miles    
Events      
T = Trace of Precipitation, MM = Missing Value Source: NWS Daily Summary

Daily Weather History Graph

Daily Weather History Graph

Search for Another Location

Airport or City:

Trip Planner

Search our weather history database for the weather conditions in past years. The results will help you decide how hot, cold, wet, or windy it might be!

Date:

Astronomy

Jun. 27, 2013 Rise Set
Actual Time 6:04 AM EDT 8:40 PM EDT
Civil Twilight 5:34 AM EDT 9:11 PM EDT
Nautical Twilight 4:57 AM EDT 9:48 PM EDT
Astronomical Twilight 4:15 AM EDT 10:30 PM EDT
Moon 11:47 PM EDT (6/27) 10:54 AM EDT (6/27)
Length of Visible Light 15h 36m
Length of Day
14h 35m
Waning Gibbous, 76% of the Moon is Illuminated
Jun 27
Waning Gibbous
Jun 30
Last Quarter
Jul 8
New
Jul 15
First Quarter
Jul 22
Full

Hourly Weather History & Observations

Time (EDT) Temp. Heat Index Dew Point Humidity Pressure Visibility Wind Dir Wind Speed Gust Speed Precip Events Conditions
12:54 AM 68.0 °F - 64.9 °F 90% 29.92 in 10.0 mi SSW 9.2 mph - N/A   Scattered Clouds
1:54 AM 69.1 °F - 66.0 °F 90% 29.89 in 10.0 mi SW 6.9 mph - N/A   Scattered Clouds
2:54 AM 68.0 °F - 64.9 °F 90% 29.88 in 10.0 mi SW 8.1 mph - N/A   Scattered Clouds
3:02 AM 68.0 °F - 66.2 °F 94% 29.91 in 10.0 mi SW 5.8 mph - N/A   Mostly Cloudy
3:54 AM 68.0 °F - 66.0 °F 93% 29.85 in 10.0 mi SSW 5.8 mph - N/A   Overcast
4:43 AM 69.8 °F - 68.0 °F 94% 29.87 in 6.0 mi SW 9.2 mph - N/A   Overcast
4:54 AM 69.1 °F - 68.0 °F 96% 29.84 in 5.0 mi SW 9.2 mph - N/A   Overcast
5:54 AM 71.1 °F - 69.1 °F 93% 29.84 in 4.0 mi SW 9.2 mph - N/A   Overcast
6:30 AM 71.6 °F - 69.8 °F 94% 29.85 in 2.5 mi SSW 9.2 mph - N/A   Overcast
6:34 AM 71.6 °F - 69.8 °F 94% 29.84 in 3.0 mi SSW 10.4 mph - N/A   Overcast
6:54 AM 73.0 °F - 71.1 °F 93% 29.81 in 4.0 mi SW 11.5 mph - N/A   Overcast
7:54 AM 75.0 °F - 72.0 °F 90% 29.81 in 6.0 mi WSW 11.5 mph - N/A   Overcast
8:19 AM 75.2 °F - 71.6 °F 89% 29.86 in 7.0 mi WSW 10.4 mph 19.6 mph N/A   Overcast
8:47 AM 75.2 °F - 71.6 °F 89% 29.86 in 7.0 mi WSW 12.7 mph - N/A   Mostly Cloudy
8:54 AM 75.9 °F - 71.1 °F 85% 29.83 in 8.0 mi WSW 11.5 mph 17.3 mph N/A   Mostly Cloudy
9:26 AM 77.0 °F - 69.8 °F 78% 29.86 in 10.0 mi West 12.7 mph - N/A   Mostly Cloudy
9:54 AM 78.1 °F - 70.0 °F 76% 29.83 in 10.0 mi WSW 10.4 mph - N/A   Mostly Cloudy
10:54 AM 81.0 °F 84.1 °F 69.1 °F 67% 29.82 in 10.0 mi SW 5.8 mph - N/A   Mostly Cloudy
11:54 AM 81.0 °F 83.3 °F 66.9 °F 62% 29.82 in 10.0 mi SW 10.4 mph - N/A   Mostly Cloudy
12:54 PM 81.0 °F 84.1 °F 69.1 °F 67% 29.81 in 10.0 mi SW 10.4 mph - N/A   Mostly Cloudy
1:54 PM 82.9 °F 85.8 °F 68.0 °F 60% 29.81 in 10.0 mi WNW 9.2 mph - N/A   Mostly Cloudy
2:54 PM 84.0 °F 87.8 °F 69.1 °F 61% 29.78 in 10.0 mi SW 12.7 mph - N/A   Mostly Cloudy
3:54 PM 84.9 °F 89.4 °F 70.0 °F 61% 29.75 in 10.0 mi WSW 12.7 mph - N/A   Mostly Cloudy
4:54 PM 84.0 °F 87.8 °F 69.1 °F 61% 29.73 in 10.0 mi WSW 13.8 mph - N/A   Mostly Cloudy
5:54 PM 84.9 °F 88.8 °F 69.1 °F 59% 29.72 in 10.0 mi WSW 12.7 mph - N/A   Mostly Cloudy
6:54 PM 84.0 °F 89.0 °F 71.1 °F 65% 29.71 in 10.0 mi SW 10.4 mph - 0.00 in   Scattered Clouds
7:54 PM 82.9 °F 87.5 °F 71.1 °F 67% 29.72 in 10.0 mi SSW 5.8 mph - N/A   Clear
8:54 PM 80.1 °F 83.6 °F 71.1 °F 74% 29.73 in 10.0 mi WSW 5.8 mph - N/A   Scattered Clouds
9:54 PM 79.0 °F - 71.1 °F 77% 29.75 in 10.0 mi WSW 9.2 mph - N/A   Partly Cloudy
10:54 PM 75.9 °F - 70.0 °F 82% 29.75 in 10.0 mi SW 9.2 mph - N/A   Clear
11:54 PM 75.0 °F - 70.0 °F 84% 29.75 in 10.0 mi SW 5.8 mph - N/A   Scattered Clouds